User: anonymous   Login
Location: Unspecified
(0.0000°N, 0.0000°E)
Time: 06:30:30
(UTC+02:00)
Language:

H-2A R/B - Orbit

View from above orbital plane
View from above orbital plane
View from above satellite
View from above satellite

Ground track
Ground track

The orbit data is extracted from the following two-line orbital elements,

1 26899U 01038B   15245.27207956  .00000131  00000-0  16926-3 0  9993
2 26899  28.3928 330.4577 7128225 115.7514 352.0529  2.46004702120350
Epoch (UTC): 02 September 2015 06:31:47
Eccentricity: 0.7128225
inclination: 28.3928°
perigee height: 278 km
apogee height: 33324 km
right ascension of ascending node: 330.4577°
argument of perigee: 115.7514°
revolutions per day: 2.46004702
mean anomaly at epoch: 352.0529°
orbit number at epoch: 12035

The dashed part of the orbit path shows where the satellite is in the earth's shadow,  

DLR